Miscellaneous Local Product
Issued by NWS North Platte, NE

Home | Current Version | Previous Version | Text Only | Print | Product List | Glossary On
Versions: 1 2 3 4 5 6 7 8 9 10 11 12 13 14 15 16 17 18 19 20 21 22 23 24 25 26 27 28 29 30 31 32 33 34 35 36 37 38 39 40 41 42 43 44 45 46 47 48 49 50
832
AXUS43 KLBF 241610
MISLBF


WESTERN AND NORTH CENTRAL NEBRASKA HOURLY WEATHER ROUNDUP
NATIONAL WEATHER SERVICE NORTH PLATTE NE
1100 AM CDT MON APR 24 2017

NOTE: "FAIR" INDICATES FEW OR NO CLOUDS BELOW 12,000 FEET WITH NO
SIGNIFICANT WEATHER AND/OR OBSTRUCTIONS TO VISIBILITY.

NOTE: STATIONS NOT REPORTING VARIABLES SUCH AS SKY/WEATHER OR
PRESSURE ARE PROVIDED BY RAWS AND APRS NETWORKS AND ARE NOT UNDER
NATIONAL WEATHER SERVICE QUALITY CONTROL.

...OBSERVATIONS IN AND NEAR THE EASTERN PANHANDLE OF NEBRASKA...

CITY           SKY/WX    TMP DP  RH WIND       PRES   REMARKS
PINE RIDGE     CLOUDY    48  42  80 E3        29.64S
CHADRON        MOSUNNY   54  43  66 N9        29.63S
ALLIANCE       SUNNY     60  39  45 NW18G28   29.63R
SIDNEY         SUNNY     60  39  45 NW28G33   29.65S
$$

...OBSERVATIONS IN NORTHERN NEBRASKA AND FAR SOUTHERN SOUTH DAKOTA...

CITY           SKY/WX    TMP DP  RH WIND       PRES   REMARKS
WINNER         PTSUNNY   46  39  76 NW20      29.57S
VALENTINE      CLOUDY    50  38  63 N17       29.60R
THEDFORD       CLOUDY    57  40  52 NW17      29.57R
AINSWORTH      MOSUNNY   56  41  58 NW23      29.57R
O`NEILL        CLOUDY    58  37  45 S18       29.55S
ORD            CLOUDY    58  36  43 S17       29.54F
BROKEN BOW     CLOUDY    57  38  48 SW12      29.55F
VALENTINE NWR    N/A     54  38  53 NW13G21     N/A
HALSEY           N/A     59  39  46 SW3G12      N/A
BUTTE            N/A     57  39  52 N15G25      N/A
CHAMBERS         N/A     60  42  52 S3          N/A
EWING            N/A     55  40  57 S10         N/A
$$

...OBSERVATIONS IN SOUTHWEST NEBRASKA AND FAR NORTHEAST COLORADO...

CITY           SKY/WX    TMP DP  RH WIND       PRES   REMARKS
HOLYOKE        FAIR      64  37  36 NW26G32   29.62F
IMPERIAL       MOSUNNY   64  40  41 N25G36    29.59F
OGALLALA       MOSUNNY   65  41  42 NW21      29.60R
NORTH PLATTE   CLOUDY    61  42  49 W10       29.55S
MCCOOK         MOSUNNY   60  39  45 N18       29.54R
LEXINGTON      CLOUDY    58  38  48 W7        29.55S
STAPLETON        N/A     64  43  47 W3          N/A
GOTHENBURG       N/A     57  36  45 CALM        N/A
CALLAWAY         N/A     52  40  64 S8          N/A
$$

...OBSERVATIONS IN CENTRAL LINCOLN COUNTY AREA...

CITY           SKY/WX    TMP DP  RH WIND       PRES   REMARKS
N.P. AIRPORT   CLOUDY    61  42  49 W10       29.55S
N.P. DOWNTOWN    N/A     60  42  51 W5G12       N/A
N.P. HILLCREST   N/A     62  42  48 NW8         N/A
$$

...SOME OBSERVATIONS FROM AROUND THE REGION...

CITY           SKY/WX    TMP DP  RH WIND       PRES   REMARKS
DENVER         PTSUNNY   59  37  44 NE9       29.71S
LIMON          SUNNY     59  38  45 N17       29.72S
ASPEN          CLOUDY    48  32  53 CALM      29.84F
LARAMIE        SUNNY     49  22  34 W20       29.76S
CASPER         SUNNY     54  33  45 SW13      29.68F
CHEYENNE       SUNNY     54  24  31 NW17G25   29.73F
SCOTTSBLUFF    MOSUNNY   58  38  47 NW17G25   29.66F
GRAND ISLAND   MOSUNNY   64  38  38 S26G36    29.57F
OMAHA          PTSUNNY   64  36  35 S24G37    29.69F
SIOUX FALLS    CLOUDY    57  40  52 S24G31    29.58F
PIERRE         CLOUDY    40  37  89 NW21      29.55S WCI  30
RAPID CITY     CLOUDY    50  42  74 N18       29.62R
BISMARCK       LGT RAIN  35  33  92 N12       29.66F WCI  27
KANSAS CITY    PTSUNNY   67  36  31 S24G36    29.82F
WICHITA        CLOUDY    63  43  48 S26G37    29.75F
DODGE CITY     SUNNY     66  39  37 S24G35    29.61F
OKLAHOMA CITY  MOSUNNY   66  44  45 S22G28    29.84F
DALLAS         MOSUNNY   71  45  39 S14       29.92F
AMARILLO       SUNNY     71  38  29 SW15      29.78F
$$




USA.gov is the U.S. government's official web portal to all federal, state and local government web resources and services.